Time,TemperatureF,DewpointF,PressureIn,WindDirection,WindDirectionDegrees,WindSpeedMPH,WindSpeedGustMPH,Humidity,HourlyPrecipIn,Conditions,Clouds,dailyrainin,SoftwareType,DateUTC
2013-05-05 00:11:00,27.1,19.9,29.82,WSW,247,1.7,-999.0,74,-99.99,,,0.00,Acu-Link.com,2013-05-05 08:11:00,
2013-05-05 00:26:00,25.7,19.2,29.82,SW,225,0.0,-999.0,76,-99.99,,,0.00,Acu-Link.com,2013-05-05 08:26:00,
2013-05-05 00:41:00,24.8,18.9,29.82,East,90,2.7,-999.0,78,-99.99,,,0.00,Acu-Link.com,2013-05-05 08:41:00,
2013-05-05 00:56:00,24.3,19.0,29.83,ESE,112,2.2,-999.0,80,-99.99,,,0.00,Acu-Link.com,2013-05-05 08:56:00,
2013-05-05 01:11:00,24.3,19.3,29.84,North,0,2.2,-999.0,81,-99.99,,,0.00,Acu-Link.com,2013-05-05 09:11:00,
2013-05-05 01:27:00,23.7,18.5,29.85,North,0,0.0,-999.0,80,-99.99,,,0.00,Acu-Link.com,2013-05-05 09:27:00,
2013-05-05 01:42:00,23.2,18.3,29.85,North,0,2.7,-999.0,81,-99.99,,,0.00,Acu-Link.com,2013-05-05 09:42:00,
2013-05-05 01:57:00,23.5,18.8,29.85,North,0,1.7,-999.0,82,-99.99,,,0.00,Acu-Link.com,2013-05-05 09:57:00,
2013-05-05 02:12:00,23.9,18.6,29.86,North,0,3.2,-999.0,80,-99.99,,,0.00,Acu-Link.com,2013-05-05 10:12:00,
2013-05-05 02:28:00,24.4,19.4,29.86,ESE,112,4.7,-999.0,81,-99.99,,,0.00,Acu-Link.com,2013-05-05 10:28:00,
2013-05-05 02:43:00,24.1,19.4,29.86,ESE,112,1.7,-999.0,82,-99.99,,,0.00,Acu-Link.com,2013-05-05 10:43:00,
2013-05-05 02:58:00,24.1,19.4,29.87,ESE,112,4.7,-999.0,82,-99.99,,,0.00,Acu-Link.com,2013-05-05 10:58:00,
2013-05-05 03:14:00,24.1,19.1,29.87,ESE,112,2.7,-999.0,81,-99.99,,,0.00,Acu-Link.com,2013-05-05 11:14:00,
2013-05-05 03:29:00,23.7,19.0,29.87,SE,135,2.2,-999.0,82,-99.99,,,0.00,Acu-Link.com,2013-05-05 11:29:00,
2013-05-05 03:44:00,23.5,19.1,29.88,SE,135,2.7,-999.0,83,-99.99,,,0.00,Acu-Link.com,2013-05-05 11:44:00,
2013-05-05 03:59:00,23.2,18.8,29.88,SE,135,3.2,-999.0,83,-99.99,,,0.00,Acu-Link.com,2013-05-05 11:59:00,
2013-05-05 04:14:00,23.2,19.1,29.89,SE,135,4.2,-999.0,84,-99.99,,,0.00,Acu-Link.com,2013-05-05 12:14:00,
2013-05-05 04:30:00,23.5,19.4,29.89,SSE,157,4.7,-999.0,84,-99.99,,,0.00,Acu-Link.com,2013-05-05 12:30:00,
2013-05-05 04:45:00,23.5,19.4,29.90,SE,135,2.7,-999.0,84,-99.99,,,0.00,Acu-Link.com,2013-05-05 12:45:00,
2013-05-05 05:00:00,23.5,19.4,29.90,SE,135,3.2,-999.0,84,-99.99,,,0.00,Acu-Link.com,2013-05-05 13:00:00,
2013-05-05 05:15:00,23.9,19.2,29.90,SE,135,4.2,-999.0,82,-99.99,,,0.00,Acu-Link.com,2013-05-05 13:15:00,
2013-05-05 05:30:00,23.4,19.0,29.90,South,180,3.2,-999.0,83,-99.99,,,0.00,Acu-Link.com,2013-05-05 13:30:00,
2013-05-05 05:46:00,23.5,19.1,29.91,SE,135,2.7,-999.0,83,-99.99,,,0.00,Acu-Link.com,2013-05-05 13:46:00,
2013-05-05 06:01:00,24.1,19.4,29.91,SSE,157,2.7,-999.0,82,-99.99,,,0.00,Acu-Link.com,2013-05-05 14:01:00,
2013-05-05 06:16:00,24.8,20.1,29.92,SE,135,2.7,-999.0,82,-99.99,,,0.00,Acu-Link.com,2013-05-05 14:16:00,
2013-05-05 06:32:00,26.4,20.8,29.92,ESE,112,0.0,-999.0,79,-99.99,,,0.00,Acu-Link.com,2013-05-05 14:32:00,
2013-05-05 06:47:00,27.3,20.8,29.92,SSE,157,3.2,-999.0,76,-99.99,,,0.00,Acu-Link.com,2013-05-05 14:47:00,
2013-05-05 07:02:00,27.9,21.3,29.92,South,180,3.7,-999.0,76,-99.99,,,0.00,Acu-Link.com,2013-05-05 15:02:00,
2013-05-05 07:18:00,30.2,22.3,29.93,SW,225,4.2,-999.0,72,-99.99,,,0.00,Acu-Link.com,2013-05-05 15:18:00,
2013-05-05 07:33:00,30.2,22.3,29.93,West,270,7.3,-999.0,72,-99.99,,,0.00,Acu-Link.com,2013-05-05 15:33:00,
2013-05-05 07:48:00,30.9,22.3,29.93,SSW,202,5.3,-999.0,70,-99.99,,,0.00,Acu-Link.com,2013-05-05 15:48:00,
2013-05-05 08:03:00,30.6,22.0,29.94,WSW,247,7.8,-999.0,70,-99.99,,,0.00,Acu-Link.com,2013-05-05 16:03:00,
2013-05-05 08:18:00,31.5,21.8,29.93,WSW,247,13.0,-999.0,67,-99.99,,,0.00,Acu-Link.com,2013-05-05 16:18:00,
2013-05-05 08:34:00,30.7,20.0,29.94,WSW,247,9.9,-999.0,64,-99.99,,,0.00,Acu-Link.com,2013-05-05 16:34:00,
2013-05-05 08:49:00,30.4,19.3,29.95,WSW,247,11.4,-999.0,63,-99.99,,,0.00,Acu-Link.com,2013-05-05 16:49:00,
2013-05-05 09:04:00,31.6,19.7,29.95,WSW,247,10.4,-999.0,61,-99.99,,,0.00,Acu-Link.com,2013-05-05 17:04:00,
2013-05-05 09:20:00,31.5,18.0,29.95,West,270,10.9,-999.0,57,-99.99,,,0.00,Acu-Link.com,2013-05-05 17:20:00,
2013-05-05 09:35:00,31.1,15.6,29.96,WSW,247,9.9,-999.0,52,-99.99,,,0.00,Acu-Link.com,2013-05-05 17:35:00,
2013-05-05 09:50:00,31.8,15.3,29.93,West,270,9.9,-999.0,50,-99.99,,,0.00,Acu-Link.com,2013-05-05 17:50:00,
2013-05-05 10:05:00,33.1,16.5,29.93,WSW,247,4.2,-999.0,50,-99.99,,,0.00,Acu-Link.com,2013-05-05 18:05:00,
2013-05-05 10:20:00,34.9,18.2,29.90,SSW,202,12.5,-999.0,50,-99.99,,,0.00,Acu-Link.com,2013-05-05 18:20:00,
2013-05-05 10:36:00,35.1,17.9,29.89,SW,225,7.8,-999.0,49,-99.99,,,0.00,Acu-Link.com,2013-05-05 18:36:00,
2013-05-05 10:51:00,35.2,18.4,29.89,WSW,247,9.4,-999.0,50,-99.99,,,0.00,Acu-Link.com,2013-05-05 18:51:00,
2013-05-05 11:06:00,36.1,17.3,29.89,WSW,247,12.5,-999.0,46,-99.99,,,0.00,Acu-Link.com,2013-05-05 19:06:00,
2013-05-05 11:22:00,36.5,17.7,29.89,WSW,247,7.8,-999.0,46,-99.99,,,0.00,Acu-Link.com,2013-05-05 19:22:00,
2013-05-05 11:37:00,36.7,16.9,29.90,West,270,13.0,-999.0,44,-99.99,,,0.00,Acu-Link.com,2013-05-05 19:37:00,
2013-05-05 11:52:00,36.1,16.3,29.92,West,270,14.5,-999.0,44,-99.99,,,0.00,Acu-Link.com,2013-05-05 19:52:00,
2013-05-05 12:07:00,36.5,16.7,29.94,West,270,12.5,-999.0,44,-99.99,,,0.00,Acu-Link.com,2013-05-05 20:07:00,
2013-05-05 12:22:00,36.9,14.9,29.94,WSW,247,15.0,-999.0,40,-99.99,,,0.00,Acu-Link.com,2013-05-05 20:22:00,
2013-05-05 12:38:00,36.5,13.9,29.96,WSW,247,13.5,-999.0,39,-99.99,,,0.00,Acu-Link.com,2013-05-05 20:38:00,
2013-05-05 12:53:00,36.9,13.7,29.95,WSW,247,12.5,-999.0,38,-99.99,,,0.00,Acu-Link.com,2013-05-05 20:53:00,
2013-05-05 13:08:00,37.8,12.6,29.95,WSW,247,11.9,-999.0,35,-99.99,,,0.00,Acu-Link.com,2013-05-05 21:08:00,
2013-05-05 13:23:00,37.2,10.8,29.96,WSW,247,8.9,-999.0,33,-99.99,,,0.00,Acu-Link.com,2013-05-05 21:23:00,
2013-05-05 13:39:00,37.2,11.4,29.96,West,270,13.5,-999.0,34,-99.99,,,0.00,Acu-Link.com,2013-05-05 21:39:00,
2013-05-05 13:54:00,37.4,12.3,29.96,West,270,16.6,-999.0,35,-99.99,,,0.00,Acu-Link.com,2013-05-05 21:54:00,
2013-05-05 14:09:00,37.2,13.4,29.96,West,270,20.7,-999.0,37,-99.99,,,0.00,Acu-Link.com,2013-05-05 22:09:00,
2013-05-05 14:24:00,37.2,12.7,29.96,WNW,292,19.1,-999.0,36,-99.99,,,0.00,Acu-Link.com,2013-05-05 22:24:00,
2013-05-05 14:40:00,38.7,14.7,29.96,WSW,247,15.0,-999.0,37,-99.99,,,0.00,Acu-Link.com,2013-05-05 22:40:00,
2013-05-05 14:56:00,38.5,14.5,29.96,West,270,10.9,-999.0,37,-99.99,,,0.00,Acu-Link.com,2013-05-05 22:56:00,
2013-05-05 15:11:00,37.8,13.9,29.96,WSW,247,8.9,-999.0,37,-99.99,,,0.00,Acu-Link.com,2013-05-05 23:11:00,
2013-05-05 15:26:00,38.1,12.2,29.96,West,270,16.6,-999.0,34,-99.99,,,0.00,Acu-Link.com,2013-05-05 23:26:00,
2013-05-05 15:41:00,38.3,13.1,29.96,West,270,17.1,-999.0,35,-99.99,,,0.00,Acu-Link.com,2013-05-05 23:41:00,
2013-05-05 15:56:00,38.5,14.5,29.96,WSW,247,11.4,-999.0,37,-99.99,,,0.00,Acu-Link.com,2013-05-05 23:56:00,
2013-05-05 16:12:00,38.7,15.3,29.96,WNW,292,17.6,-999.0,38,-99.99,,,0.00,Acu-Link.com,2013-05-06 00:12:00,
2013-05-05 16:28:00,39.2,15.8,29.96,West,270,11.9,-999.0,38,-99.99,,,0.00,Acu-Link.com,2013-05-06 00:28:00,
2013-05-05 16:43:00,39.4,15.9,29.95,WNW,292,10.4,-999.0,38,-99.99,,,0.00,Acu-Link.com,2013-05-06 00:43:00,
2013-05-05 16:59:00,39.7,15.6,29.95,West,270,8.9,-999.0,37,-99.99,,,0.00,Acu-Link.com,2013-05-06 00:59:00,
2013-05-05 17:14:00,39.4,15.3,29.95,West,270,11.9,-999.0,37,-99.99,,,0.00,Acu-Link.com,2013-05-06 01:14:00,
2013-05-05 17:29:00,39.2,15.1,29.96,West,270,10.9,-999.0,37,-99.99,,,0.00,Acu-Link.com,2013-05-06 01:29:00,
2013-05-05 17:44:00,39.6,14.9,29.95,West,270,7.8,-999.0,36,-99.99,,,0.00,Acu-Link.com,2013-05-06 01:44:00,
2013-05-05 18:00:00,39.4,15.3,29.95,West,270,11.4,-999.0,37,-99.99,,,0.00,Acu-Link.com,2013-05-06 02:00:00,
2013-05-05 18:15:00,39.2,14.5,29.94,West,270,8.3,-999.0,36,-99.99,,,0.00,Acu-Link.com,2013-05-06 02:15:00,
2013-05-05 18:30:00,39.4,14.7,29.94,WSW,247,12.5,-999.0,36,-99.99,,,0.00,Acu-Link.com,2013-05-06 02:30:00,
2013-05-05 18:45:00,39.9,15.1,29.94,West,270,12.5,-999.0,36,-99.99,,,0.00,Acu-Link.com,2013-05-06 02:45:00,
2013-05-05 19:01:00,39.7,13.7,29.94,WSW,247,14.0,-999.0,34,-99.99,,,0.00,Acu-Link.com,2013-05-06 03:01:00,
2013-05-05 19:16:00,39.9,14.5,29.94,West,270,10.4,-999.0,35,-99.99,,,0.00,Acu-Link.com,2013-05-06 03:16:00,
2013-05-05 19:31:00,39.7,13.7,29.94,WSW,247,10.4,-999.0,34,-99.99,,,0.00,Acu-Link.com,2013-05-06 03:31:00,
2013-05-05 19:46:00,39.9,13.2,29.94,West,270,8.3,-999.0,33,-99.99,,,0.00,Acu-Link.com,2013-05-06 03:46:00,
2013-05-05 20:02:00,39.9,13.8,29.93,WSW,247,12.5,-999.0,34,-99.99,,,0.00,Acu-Link.com,2013-05-06 04:02:00,
2013-05-05 20:17:00,39.4,13.4,29.93,West,270,9.4,-999.0,34,-99.99,,,0.00,Acu-Link.com,2013-05-06 04:17:00,
2013-05-05 20:32:00,39.2,13.9,29.92,WSW,247,7.3,-999.0,35,-99.99,,,0.00,Acu-Link.com,2013-05-06 04:32:00,
2013-05-05 20:47:00,38.7,13.4,29.92,SW,225,7.8,-999.0,35,-99.99,,,0.00,Acu-Link.com,2013-05-06 04:47:00,
2013-05-05 21:03:00,38.3,13.1,29.92,SW,225,5.8,-999.0,35,-99.99,,,0.00,Acu-Link.com,2013-05-06 05:03:00,
2013-05-05 21:18:00,37.9,13.4,29.92,SW,225,6.3,-999.0,36,-99.99,,,0.00,Acu-Link.com,2013-05-06 05:18:00,
2013-05-05 21:33:00,37.4,13.5,29.91,WSW,247,5.3,-999.0,37,-99.99,,,0.00,Acu-Link.com,2013-05-06 05:33:00,
2013-05-05 21:48:00,36.3,12.6,29.92,SW,225,5.3,-999.0,37,-99.99,,,0.00,Acu-Link.com,2013-05-06 05:48:00,
2013-05-05 22:03:00,35.6,12.5,29.93,WSW,247,3.7,-999.0,38,-99.99,,,0.00,Acu-Link.com,2013-05-06 06:03:00,
2013-05-05 22:18:00,34.7,12.9,29.93,WSW,247,3.7,-999.0,40,-99.99,,,0.00,Acu-Link.com,2013-05-06 06:18:00,
2013-05-05 22:34:00,33.1,12.5,29.93,WSW,247,3.7,-999.0,42,-99.99,,,0.00,Acu-Link.com,2013-05-06 06:34:00,
2013-05-05 22:49:00,32.2,12.2,29.93,WSW,247,2.7,-999.0,43,-99.99,,,0.00,Acu-Link.com,2013-05-06 06:49:00,
2013-05-05 23:04:00,29.8,12.1,29.93,WSW,247,2.2,-999.0,47,-99.99,,,0.00,Acu-Link.com,2013-05-06 07:04:00,
2013-05-05 23:19:00,27.5,11.8,29.93,WSW,247,2.2,-999.0,51,-99.99,,,0.00,Acu-Link.com,2013-05-06 07:19:00,
2013-05-05 23:34:00,26.1,12.2,29.94,WSW,247,1.7,-999.0,55,-99.99,,,0.00,Acu-Link.com,2013-05-06 07:34:00,
2013-05-05 23:50:00,24.3,12.8,29.94,WSW,247,1.7,-999.0,61,-99.99,,,0.00,Acu-Link.com,2013-05-06 07:50:00,